Year,Month,Day,Hour,Minute,Value (Times are PST for temperature in C)
2015,08,17,01,16,13.70
2015,08,17,01,17,13.70
2015,08,17,01,18,13.70
2015,08,17,01,19,13.70
2015,08,17,01,20,13.70
2015,08,17,01,21,13.70
2015,08,17,01,22,13.70
2015,08,17,01,23,13.70
2015,08,17,01,24,13.70
2015,08,17,01,25,13.70
2015,08,17,01,26,13.70
2015,08,17,01,27,13.70
2015,08,17,01,28,13.70
2015,08,17,01,29,13.70
2015,08,17,01,30,13.70
2015,08,17,01,31,13.70
2015,08,17,01,32,13.70
2015,08,17,01,33,13.70
2015,08,17,01,34,13.70
2015,08,17,01,35,13.70
2015,08,17,01,36,13.70
2015,08,17,01,37,13.70
2015,08,17,01,38,13.70
2015,08,17,01,39,13.70
2015,08,17,01,40,13.70
2015,08,17,01,41,13.70
2015,08,17,01,42,13.70
2015,08,17,01,43,13.70
2015,08,17,01,44,13.70
2015,08,17,01,45,13.70
2015,08,17,01,46,11.80
2015,08,17,01,47,11.80
2015,08,17,01,48,11.80
2015,08,17,01,49,11.80
2015,08,17,01,50,11.80
2015,08,17,01,51,11.80
2015,08,17,01,52,11.80
2015,08,17,01,53,11.80
2015,08,17,01,54,11.80
2015,08,17,01,55,11.80
2015,08,17,01,56,11.80
2015,08,17,01,57,11.80
2015,08,17,01,58,11.80
2015,08,17,01,59,11.80
2015,08,17,02,00,11.80
2015,08,17,02,01,11.80
2015,08,17,02,02,11.80
2015,08,17,02,03,11.80
2015,08,17,02,04,11.80
2015,08,17,02,05,11.80
2015,08,17,02,06,11.80
2015,08,17,02,07,11.80
2015,08,17,02,08,11.80
2015,08,17,02,09,11.80
2015,08,17,02,10,11.80
2015,08,17,02,11,11.80
2015,08,17,02,12,11.80
2015,08,17,02,13,11.80
2015,08,17,02,14,11.80
2015,08,17,02,15,11.80
2015,08,17,02,16,11.30
2015,08,17,02,17,11.30
2015,08,17,02,18,11.30
2015,08,17,02,19,11.30
2015,08,17,02,20,11.30
2015,08,17,02,21,11.30
2015,08,17,02,22,11.30
2015,08,17,02,23,11.30
2015,08,17,02,24,11.30
2015,08,17,02,25,11.30
2015,08,17,02,26,11.30
2015,08,17,02,27,11.30
2015,08,17,02,28,11.30
2015,08,17,02,29,11.30
2015,08,17,02,30,11.30
2015,08,17,02,31,11.30
2015,08,17,02,32,11.30
2015,08,17,02,33,11.30
2015,08,17,02,34,11.30
2015,08,17,02,35,11.30
2015,08,17,02,36,11.30
2015,08,17,02,37,11.30
2015,08,17,02,38,11.30
2015,08,17,02,39,11.30
2015,08,17,02,40,11.30
2015,08,17,02,41,11.30
2015,08,17,02,42,11.30
2015,08,17,02,43,11.30
2015,08,17,02,44,11.30
2015,08,17,02,45,11.30
2015,08,17,02,46,11.30
2015,08,17,02,47,11.30
2015,08,17,02,48,11.30
2015,08,17,02,49,11.30
2015,08,17,02,50,11.30
2015,08,17,02,51,11.30
2015,08,17,02,52,11.30
2015,08,17,02,53,11.30
2015,08,17,02,54,11.30
2015,08,17,02,55,11.30
2015,08,17,02,56,11.30
2015,08,17,02,57,11.30
2015,08,17,02,58,11.30
2015,08,17,02,59,11.30
2015,08,17,03,00,11.30
2015,08,17,03,01,11.30
2015,08,17,03,02,11.30
2015,08,17,03,03,11.30
2015,08,17,03,04,11.30
2015,08,17,03,05,11.30
2015,08,17,03,06,11.30
2015,08,17,03,07,11.30
2015,08,17,03,08,11.30
2015,08,17,03,09,11.30
2015,08,17,03,10,11.30
2015,08,17,03,11,11.30
2015,08,17,03,12,11.30
2015,08,17,03,13,11.30
2015,08,17,03,14,11.30
2015,08,17,03,15,11.30
2015,08,17,03,16,11.10
2015,08,17,03,17,11.10
2015,08,17,03,18,11.10
2015,08,17,03,19,11.10
2015,08,17,03,20,11.10
2015,08,17,03,21,11.10
2015,08,17,03,22,11.10
2015,08,17,03,23,11.10
2015,08,17,03,24,11.10
2015,08,17,03,25,11.10
2015,08,17,03,26,11.10
2015,08,17,03,27,11.10
2015,08,17,03,28,11.10
2015,08,17,03,29,11.10
2015,08,17,03,30,11.10
2015,08,17,03,31,11.10
2015,08,17,03,32,11.10
2015,08,17,03,33,11.10
2015,08,17,03,34,11.10
2015,08,17,03,35,11.10
2015,08,17,03,36,11.10
2015,08,17,03,37,11.10
2015,08,17,03,38,11.10
2015,08,17,03,39,11.10
2015,08,17,03,40,11.10
2015,08,17,03,41,11.10
2015,08,17,03,42,11.10
2015,08,17,03,43,11.10
2015,08,17,03,44,11.10
2015,08,17,03,45,11.10
2015,08,17,03,46,10.60
2015,08,17,03,47,10.60
2015,08,17,03,48,10.60
2015,08,17,03,49,10.60
2015,08,17,03,50,10.60
2015,08,17,03,51,10.60
2015,08,17,03,52,10.60
2015,08,17,03,53,10.60
2015,08,17,03,54,10.60
2015,08,17,03,55,10.60
2015,08,17,03,56,10.60
2015,08,17,03,57,10.60
2015,08,17,03,58,10.60
2015,08,17,03,59,10.60
2015,08,17,04,00,10.60
2015,08,17,04,01,10.60
2015,08,17,04,02,10.60
2015,08,17,04,03,10.60
2015,08,17,04,04,10.60
2015,08,17,04,05,10.60
2015,08,17,04,06,10.60
2015,08,17,04,07,10.60
2015,08,17,04,08,10.60
2015,08,17,04,09,10.60
2015,08,17,04,10,10.60
2015,08,17,04,11,10.60
2015,08,17,04,12,10.60
2015,08,17,04,13,10.60
2015,08,17,04,14,10.60
2015,08,17,04,15,10.60
2015,08,17,04,16,10.30
2015,08,17,04,17,10.30
2015,08,17,04,18,10.30
2015,08,17,04,19,10.30
2015,08,17,04,20,10.30
2015,08,17,04,21,10.30
2015,08,17,04,22,10.30
2015,08,17,04,23,10.30
2015,08,17,04,24,10.30
2015,08,17,04,25,10.30
2015,08,17,04,26,10.30
2015,08,17,04,27,10.30
2015,08,17,04,28,10.30
2015,08,17,04,29,10.30
2015,08,17,04,30,10.30
2015,08,17,04,31,10.30
2015,08,17,04,32,10.30
2015,08,17,04,33,10.30
2015,08,17,04,34,10.30
2015,08,17,04,35,10.30
2015,08,17,04,36,10.30
2015,08,17,04,37,10.30
2015,08,17,04,38,10.30
2015,08,17,04,39,10.30
2015,08,17,04,40,10.30
2015,08,17,04,41,10.30
2015,08,17,04,42,10.30
2015,08,17,04,43,10.30
2015,08,17,04,44,10.30
2015,08,17,04,45,10.30
2015,08,17,04,46,10.30
2015,08,17,04,47,10.30
2015,08,17,04,48,10.30
2015,08,17,04,49,10.30
2015,08,17,04,50,10.30
2015,08,17,04,51,10.30
2015,08,17,04,52,10.30
2015,08,17,04,53,10.30
2015,08,17,04,54,10.30
2015,08,17,04,55,10.30
2015,08,17,04,56,10.30
2015,08,17,04,57,10.30
2015,08,17,04,58,10.30
2015,08,17,04,59,10.30
2015,08,17,05,00,10.30
2015,08,17,05,01,10.30
2015,08,17,05,02,10.30
2015,08,17,05,03,10.30
2015,08,17,05,04,10.30
2015,08,17,05,05,10.30
2015,08,17,05,06,10.30
2015,08,17,05,07,10.30
2015,08,17,05,08,10.30
2015,08,17,05,09,10.30
2015,08,17,05,10,10.30
2015,08,17,05,11,10.30
2015,08,17,05,12,10.30
2015,08,17,05,13,10.30
2015,08,17,05,14,10.30
2015,08,17,05,15,10.30
2015,08,17,05,16,10.30
2015,08,17,05,17,10.40
2015,08,17,05,18,10.40
2015,08,17,05,19,10.40
2015,08,17,05,20,10.40
2015,08,17,05,21,10.40
2015,08,17,05,22,10.40
2015,08,17,05,23,10.40
2015,08,17,05,24,10.40
2015,08,17,05,25,10.40
2015,08,17,05,26,10.40
2015,08,17,05,27,10.40
2015,08,17,05,28,10.40
2015,08,17,05,29,10.40
2015,08,17,05,30,10.40
2015,08,17,05,31,10.40
2015,08,17,05,32,10.40
2015,08,17,05,33,10.40
2015,08,17,05,34,10.40
2015,08,17,05,35,10.40
2015,08,17,05,36,10.40
2015,08,17,05,37,10.40
2015,08,17,05,38,10.40
2015,08,17,05,39,10.40
2015,08,17,05,40,10.40
2015,08,17,05,41,10.40
2015,08,17,05,42,10.40
2015,08,17,05,43,10.40
2015,08,17,05,44,10.40
2015,08,17,05,45,10.40
2015,08,17,05,46,10.20
2015,08,17,05,47,10.20
2015,08,17,05,48,10.20
2015,08,17,05,49,10.20
2015,08,17,05,50,10.20
2015,08,17,05,51,10.20
2015,08,17,05,52,10.20
2015,08,17,05,53,10.20
2015,08,17,05,54,10.20
2015,08,17,05,55,10.20
2015,08,17,05,56,10.20
2015,08,17,05,57,10.20
2015,08,17,05,58,10.20
2015,08,17,05,59,10.20
2015,08,17,06,00,10.20
2015,08,17,06,01,10.20
2015,08,17,06,02,10.20
2015,08,17,06,03,10.20
2015,08,17,06,04,10.20
2015,08,17,06,05,10.20
2015,08,17,06,06,10.20
2015,08,17,06,07,10.20
2015,08,17,06,08,10.20
2015,08,17,06,09,10.20
2015,08,17,06,10,10.20
2015,08,17,06,11,10.20
2015,08,17,06,12,10.20
2015,08,17,06,13,10.20
2015,08,17,06,14,10.20
2015,08,17,06,15,10.20
2015,08,17,06,16,9.90
2015,08,17,06,17,9.90
2015,08,17,06,18,9.90
2015,08,17,06,19,9.90
2015,08,17,06,20,9.90
2015,08,17,06,21,9.90
2015,08,17,06,22,9.90
2015,08,17,06,23,9.90
2015,08,17,06,24,9.90
2015,08,17,06,25,9.90
2015,08,17,06,26,9.90
2015,08,17,06,27,9.90
2015,08,17,06,28,9.90
2015,08,17,06,29,9.90
2015,08,17,06,30,9.90
2015,08,17,06,31,9.90
2015,08,17,06,32,9.90
2015,08,17,06,33,9.90
2015,08,17,06,34,9.90
2015,08,17,06,35,9.90
2015,08,17,06,36,9.90
2015,08,17,06,37,9.90
2015,08,17,06,38,9.90
2015,08,17,06,39,9.90
2015,08,17,06,40,9.90
2015,08,17,06,41,9.90
2015,08,17,06,42,9.90
2015,08,17,06,43,9.90
2015,08,17,06,44,9.90
2015,08,17,06,45,9.90
2015,08,17,06,46,9.90
2015,08,17,06,47,9.90
2015,08,17,06,48,9.90
2015,08,17,06,49,9.90
2015,08,17,06,50,9.90
2015,08,17,06,51,9.90
2015,08,17,06,52,9.90
2015,08,17,06,53,9.90
2015,08,17,06,54,9.90
2015,08,17,06,55,9.90
2015,08,17,06,56,9.90
2015,08,17,06,57,9.90
2015,08,17,06,58,9.90
2015,08,17,06,59,9.90
2015,08,17,07,00,9.90
2015,08,17,07,01,9.90
2015,08,17,07,02,9.90
2015,08,17,07,03,9.90
2015,08,17,07,04,9.90
2015,08,17,07,05,9.90
2015,08,17,07,06,9.90
2015,08,17,07,07,9.90
2015,08,17,07,08,9.90
2015,08,17,07,09,9.90
2015,08,17,07,10,9.90
2015,08,17,07,11,9.90
2015,08,17,07,12,9.90
2015,08,17,07,13,9.90
2015,08,17,07,14,9.90
2015,08,17,07,15,9.90
2015,08,17,07,16,10.40
2015,08,17,07,17,10.40
2015,08,17,07,18,10.40
2015,08,17,07,19,10.40
2015,08,17,07,20,10.40
2015,08,17,07,21,10.40
2015,08,17,07,22,10.40
2015,08,17,07,23,10.40
2015,08,17,07,24,10.40
2015,08,17,07,25,10.40
2015,08,17,07,26,10.40
2015,08,17,07,27,10.40
2015,08,17,07,28,10.40
2015,08,17,07,29,10.40
2015,08,17,07,30,10.40
2015,08,17,07,31,10.40
2015,08,17,07,32,10.40
2015,08,17,07,33,10.40
2015,08,17,07,34,10.40
2015,08,17,07,35,10.40
2015,08,17,07,36,10.40
2015,08,17,07,37,10.40
2015,08,17,07,38,10.40
2015,08,17,07,39,10.40
2015,08,17,07,40,10.40
2015,08,17,07,41,10.40
2015,08,17,07,42,10.40
2015,08,17,07,43,10.40
2015,08,17,07,44,10.40
2015,08,17,07,45,10.40
2015,08,17,07,46,10.80
2015,08,17,07,47,10.80
2015,08,17,07,48,10.80
2015,08,17,07,49,10.80
2015,08,17,07,50,10.80
2015,08,17,07,51,10.80
2015,08,17,07,52,10.80
2015,08,17,07,53,10.80
2015,08,17,07,54,10.80
2015,08,17,07,55,10.80
2015,08,17,07,56,10.80
2015,08,17,07,57,10.80
2015,08,17,07,58,10.80
2015,08,17,07,59,10.80
2015,08,17,08,00,10.80
2015,08,17,08,01,10.80
2015,08,17,08,02,10.80
2015,08,17,08,03,10.80
2015,08,17,08,04,10.80
2015,08,17,08,05,10.80
2015,08,17,08,06,10.80
2015,08,17,08,07,10.80
2015,08,17,08,08,10.80
2015,08,17,08,09,10.80
2015,08,17,08,10,10.80
2015,08,17,08,11,10.80
2015,08,17,08,12,10.80
2015,08,17,08,13,10.80
2015,08,17,08,14,10.80
2015,08,17,08,15,10.80
2015,08,17,08,16,11.20
2015,08,17,08,17,11.20
2015,08,17,08,18,11.20
2015,08,17,08,19,11.20
2015,08,17,08,20,11.20
2015,08,17,08,21,11.20
2015,08,17,08,22,11.20
2015,08,17,08,23,11.20
2015,08,17,08,24,11.20
2015,08,17,08,25,11.20
2015,08,17,08,26,11.20
2015,08,17,08,27,11.20
2015,08,17,08,28,11.20
2015,08,17,08,29,11.20
2015,08,17,08,30,11.20
2015,08,17,08,31,11.20
2015,08,17,08,32,11.20
2015,08,17,08,33,11.20
2015,08,17,08,34,11.20
2015,08,17,08,35,11.20
2015,08,17,08,36,11.20
2015,08,17,08,37,11.20
2015,08,17,08,38,11.20
2015,08,17,08,39,11.20
2015,08,17,08,40,11.20
2015,08,17,08,41,11.20
2015,08,17,08,42,11.20
2015,08,17,08,43,11.20
2015,08,17,08,44,11.20
2015,08,17,08,45,11.20
2015,08,17,08,46,11.40
2015,08,17,08,47,11.40
2015,08,17,08,48,11.40
2015,08,17,08,49,11.40
2015,08,17,08,50,11.40
2015,08,17,08,51,11.40
2015,08,17,08,52,11.40
2015,08,17,08,53,11.40
2015,08,17,08,54,11.40
2015,08,17,08,55,11.40
2015,08,17,08,56,11.40
2015,08,17,08,57,11.40
2015,08,17,08,58,11.40
2015,08,17,08,59,11.40
2015,08,17,09,00,11.40
2015,08,17,09,01,11.40
2015,08,17,09,02,11.40
2015,08,17,09,03,11.40
2015,08,17,09,04,11.40
2015,08,17,09,05,11.40
2015,08,17,09,06,11.40
2015,08,17,09,07,11.40
2015,08,17,09,08,11.40
2015,08,17,09,09,11.40
2015,08,17,09,10,11.40
2015,08,17,09,11,11.40
2015,08,17,09,12,11.40
2015,08,17,09,13,11.40
2015,08,17,09,14,11.40
2015,08,17,09,15,11.40
2015,08,17,09,16,11.40
2015,08,17,09,17,11.40
2015,08,17,09,18,11.40
2015,08,17,09,19,11.40
2015,08,17,09,20,11.40
2015,08,17,09,21,11.40
2015,08,17,09,22,11.40
2015,08,17,09,23,11.40
2015,08,17,09,24,11.40
2015,08,17,09,25,11.40
2015,08,17,09,26,11.40
2015,08,17,09,27,11.40
2015,08,17,09,28,11.40
2015,08,17,09,29,11.40
2015,08,17,09,30,11.40
2015,08,17,09,31,11.40
2015,08,17,09,32,11.40
2015,08,17,09,33,11.40
2015,08,17,09,34,11.40
2015,08,17,09,35,11.40
2015,08,17,09,36,11.40
2015,08,17,09,37,11.40
2015,08,17,09,38,11.40
2015,08,17,09,39,11.40
2015,08,17,09,40,11.40
2015,08,17,09,41,11.40
2015,08,17,09,42,11.40
2015,08,17,09,43,11.40
2015,08,17,09,44,11.40
2015,08,17,09,45,11.40
2015,08,17,09,46,11.30
2015,08,17,09,47,11.30
2015,08,17,09,48,11.30
2015,08,17,09,49,11.30
2015,08,17,09,50,11.30
2015,08,17,09,51,11.30
2015,08,17,09,52,11.30
2015,08,17,09,53,11.30
2015,08,17,09,54,11.30
2015,08,17,09,55,11.30
2015,08,17,09,56,11.30
2015,08,17,09,57,11.30
2015,08,17,09,58,11.30
2015,08,17,09,59,11.30
2015,08,17,10,00,11.30
2015,08,17,10,01,11.30
2015,08,17,10,02,11.30
2015,08,17,10,03,11.30
2015,08,17,10,04,11.30
2015,08,17,10,05,11.30
2015,08,17,10,06,11.30
2015,08,17,10,07,11.30
2015,08,17,10,08,11.30
2015,08,17,10,09,11.30
2015,08,17,10,10,11.30
2015,08,17,10,11,11.30
2015,08,17,10,12,11.30
2015,08,17,10,13,11.30
2015,08,17,10,14,11.30
2015,08,17,10,15,11.30
2015,08,17,10,16,11.60
2015,08,17,10,17,11.60
2015,08,17,10,18,11.60
2015,08,17,10,19,11.60
2015,08,17,10,20,11.60
2015,08,17,10,21,11.60
2015,08,17,10,22,11.60
2015,08,17,10,23,11.60
2015,08,17,10,24,11.60
2015,08,17,10,25,11.60
2015,08,17,10,26,11.60
2015,08,17,10,27,11.60
2015,08,17,10,28,11.60
2015,08,17,10,29,11.60
2015,08,17,10,30,11.60
2015,08,17,10,31,11.60
2015,08,17,10,32,11.60
2015,08,17,10,33,11.60
2015,08,17,10,34,11.60
2015,08,17,10,35,11.60
2015,08,17,10,36,11.60
2015,08,17,10,37,11.60
2015,08,17,10,38,11.60
2015,08,17,10,39,11.60
2015,08,17,10,40,11.60
2015,08,17,10,41,11.60
2015,08,17,10,42,11.60
2015,08,17,10,43,11.60
2015,08,17,10,44,11.60
2015,08,17,10,45,11.60
2015,08,17,10,46,11.80
2015,08,17,10,47,11.80
2015,08,17,10,48,11.80
2015,08,17,10,49,11.80
2015,08,17,10,50,11.80
2015,08,17,10,51,11.80
2015,08,17,10,52,11.80
2015,08,17,10,53,11.80
2015,08,17,10,54,11.80
2015,08,17,10,55,11.80
2015,08,17,10,56,11.80
2015,08,17,10,57,11.80
2015,08,17,10,58,11.80
2015,08,17,10,59,11.80
2015,08,17,11,00,11.80
2015,08,17,11,01,11.80
2015,08,17,11,02,11.80
2015,08,17,11,03,11.80
2015,08,17,11,04,11.80
2015,08,17,11,05,11.80
2015,08,17,11,06,11.80
2015,08,17,11,07,11.80
2015,08,17,11,08,11.80
2015,08,17,11,09,11.80
2015,08,17,11,10,11.80
2015,08,17,11,11,11.80
2015,08,17,11,12,11.80
2015,08,17,11,13,11.80
2015,08,17,11,14,11.80
2015,08,17,11,15,11.80
2015,08,17,11,16,12.70
2015,08,17,11,17,12.70
2015,08,17,11,18,12.70
2015,08,17,11,19,12.70
2015,08,17,11,20,12.70
2015,08,17,11,21,12.70
2015,08,17,11,22,12.70
2015,08,17,11,23,12.70
2015,08,17,11,24,12.70
2015,08,17,11,25,12.70
2015,08,17,11,26,12.70
2015,08,17,11,27,12.70
2015,08,17,11,28,12.70
2015,08,17,11,29,12.70
2015,08,17,11,30,12.70
2015,08,17,11,31,12.70
2015,08,17,11,32,12.70
2015,08,17,11,33,12.70
2015,08,17,11,34,12.70
2015,08,17,11,35,12.70
2015,08,17,11,36,12.70
2015,08,17,11,37,12.70
2015,08,17,11,38,12.70
2015,08,17,11,39,12.70
2015,08,17,11,40,12.70
2015,08,17,11,41,12.70
2015,08,17,11,42,12.70
2015,08,17,11,43,12.70
2015,08,17,11,44,12.70
2015,08,17,11,45,12.70
2015,08,17,11,46,13.60
2015,08,17,11,47,13.60
2015,08,17,11,48,13.60
2015,08,17,11,49,13.60
2015,08,17,11,50,13.60
2015,08,17,11,51,13.60
2015,08,17,11,52,13.60
2015,08,17,11,53,13.60
2015,08,17,11,54,13.60
2015,08,17,11,55,13.60
2015,08,17,11,56,13.60
2015,08,17,11,57,13.60
2015,08,17,11,58,13.60
2015,08,17,11,59,13.60
2015,08,17,12,00,13.60
2015,08,17,12,01,13.60
2015,08,17,12,02,13.60
2015,08,17,12,03,13.60
2015,08,17,12,04,13.60
2015,08,17,12,05,13.60
2015,08,17,12,06,13.60
2015,08,17,12,07,13.60
2015,08,17,12,08,13.60
2015,08,17,12,09,13.60
2015,08,17,12,10,13.60
2015,08,17,12,11,13.60
2015,08,17,12,12,13.60
2015,08,17,12,13,13.60
2015,08,17,12,14,13.60
2015,08,17,12,15,13.60
2015,08,17,12,16,15.20
2015,08,17,12,17,15.20
2015,08,17,12,18,15.20
2015,08,17,12,19,15.20
2015,08,17,12,20,15.20
2015,08,17,12,21,15.20
2015,08,17,12,22,15.20
2015,08,17,12,23,15.20
2015,08,17,12,24,15.20
2015,08,17,12,25,15.20
2015,08,17,12,26,15.20
2015,08,17,12,27,15.20
2015,08,17,12,28,15.20
2015,08,17,12,29,15.20
2015,08,17,12,30,15.20
2015,08,17,12,31,15.20
2015,08,17,12,32,15.20
2015,08,17,12,33,15.20
2015,08,17,12,34,15.20
2015,08,17,12,35,15.20
2015,08,17,12,36,15.20
2015,08,17,12,37,15.20
2015,08,17,12,38,15.20
2015,08,17,12,39,15.20
2015,08,17,12,40,15.20
2015,08,17,12,41,15.20
2015,08,17,12,42,15.20
2015,08,17,12,43,15.20
2015,08,17,12,44,15.20
2015,08,17,12,45,15.20
2015,08,17,12,46,16.70
2015,08,17,12,47,16.70
2015,08,17,12,48,16.70
2015,08,17,12,49,16.70
2015,08,17,12,50,16.70
2015,08,17,12,51,16.70
2015,08,17,12,52,16.70
2015,08,17,12,53,16.70
2015,08,17,12,54,16.70
2015,08,17,12,55,16.70
2015,08,17,12,56,16.70
2015,08,17,12,57,16.70
2015,08,17,12,58,16.70
2015,08,17,12,59,16.70
2015,08,17,13,00,16.70
2015,08,17,13,01,16.70
2015,08,17,13,02,16.70
2015,08,17,13,03,16.70
2015,08,17,13,04,16.70
2015,08,17,13,05,16.70
2015,08,17,13,06,16.70
2015,08,17,13,07,16.70
2015,08,17,13,08,16.70
2015,08,17,13,09,16.70
2015,08,17,13,10,16.70
2015,08,17,13,11,16.70
2015,08,17,13,12,16.70
2015,08,17,13,13,16.70
2015,08,17,13,14,16.70
2015,08,17,13,15,16.70
2015,08,17,13,16,17.40
2015,08,17,13,17,17.40
2015,08,17,13,18,17.40
2015,08,17,13,19,17.40
2015,08,17,13,20,17.40
2015,08,17,13,21,17.40
2015,08,17,13,22,17.40
2015,08,17,13,23,17.40
2015,08,17,13,24,17.40
2015,08,17,13,25,17.40
2015,08,17,13,26,17.40
2015,08,17,13,27,17.40
2015,08,17,13,28,17.40
2015,08,17,13,29,17.40
2015,08,17,13,30,17.40
2015,08,17,13,31,17.40
2015,08,17,13,32,17.40
2015,08,17,13,33,17.40
2015,08,17,13,34,17.40
2015,08,17,13,35,17.40
2015,08,17,13,36,17.40
2015,08,17,13,37,17.40
2015,08,17,13,38,17.40
2015,08,17,13,39,17.40
2015,08,17,13,40,17.40
2015,08,17,13,41,17.40
2015,08,17,13,42,17.40
2015,08,17,13,43,17.40
2015,08,17,13,44,17.40
2015,08,17,13,45,17.40
2015,08,17,13,46,18.50
2015,08,17,13,47,18.50
2015,08,17,13,48,18.50
2015,08,17,13,49,18.50
2015,08,17,13,50,18.50
2015,08,17,13,51,18.50
2015,08,17,13,52,18.50
2015,08,17,13,53,18.50
2015,08,17,13,54,18.50
2015,08,17,13,55,18.50
2015,08,17,13,56,18.50
2015,08,17,13,57,18.50
2015,08,17,13,58,18.50
2015,08,17,13,59,18.50
2015,08,17,14,00,18.50
2015,08,17,14,01,18.50
2015,08,17,14,02,18.50
2015,08,17,14,03,18.50
2015,08,17,14,04,18.50
2015,08,17,14,05,18.50
2015,08,17,14,06,18.50
2015,08,17,14,07,18.50
2015,08,17,14,08,18.50
2015,08,17,14,09,18.50
2015,08,17,14,10,18.50
2015,08,17,14,11,18.50
2015,08,17,14,12,18.50
2015,08,17,14,13,18.50
2015,08,17,14,14,18.50
2015,08,17,14,15,18.50
2015,08,17,14,16,18.30
2015,08,17,14,17,18.30
2015,08,17,14,18,18.30
2015,08,17,14,19,18.30
2015,08,17,14,20,18.30
2015,08,17,14,21,18.30
2015,08,17,14,22,18.30
2015,08,17,14,23,18.30
2015,08,17,14,24,18.30
2015,08,17,14,25,18.30
2015,08,17,14,26,18.30
2015,08,17,14,27,18.30
2015,08,17,14,28,18.30
2015,08,17,14,29,18.30
2015,08,17,14,30,18.30
2015,08,17,14,31,18.30
2015,08,17,14,32,18.30
2015,08,17,14,33,18.30
2015,08,17,14,34,18.30
2015,08,17,14,35,18.30
2015,08,17,14,36,18.30
2015,08,17,14,37,18.30
2015,08,17,14,38,18.30
2015,08,17,14,39,18.30
2015,08,17,14,40,18.30
2015,08,17,14,41,18.30
2015,08,17,14,42,18.30
2015,08,17,14,43,18.30
2015,08,17,14,44,18.30
2015,08,17,14,45,18.30
2015,08,17,14,46,18.70
2015,08,17,14,47,18.70
2015,08,17,14,48,18.70
2015,08,17,14,49,18.70
2015,08,17,14,50,18.70
2015,08,17,14,51,18.70
2015,08,17,14,52,18.70
2015,08,17,14,53,18.70
2015,08,17,14,54,18.70
2015,08,17,14,55,18.70
2015,08,17,14,56,18.70
2015,08,17,14,57,18.70
2015,08,17,14,58,18.70
2015,08,17,14,59,18.70
2015,08,17,15,00,18.70
2015,08,17,15,01,18.70
2015,08,17,15,02,18.70
2015,08,17,15,03,18.70
2015,08,17,15,04,18.70
2015,08,17,15,05,18.70
2015,08,17,15,06,18.70
2015,08,17,15,07,18.70
2015,08,17,15,08,18.70
2015,08,17,15,09,18.70
2015,08,17,15,10,18.70
2015,08,17,15,11,18.70
2015,08,17,15,12,18.70
2015,08,17,15,13,18.70
2015,08,17,15,14,18.70
2015,08,17,15,15,18.70
2015,08,17,15,16,18.50
2015,08,17,15,17,18.50
2015,08,17,15,18,18.50
2015,08,17,15,19,18.50
2015,08,17,15,20,18.50
2015,08,17,15,21,18.50
2015,08,17,15,22,18.50
2015,08,17,15,23,18.50
2015,08,17,15,24,18.50
2015,08,17,15,25,18.50
2015,08,17,15,26,18.50
2015,08,17,15,27,18.50
2015,08,17,15,28,18.50
2015,08,17,15,29,18.50
2015,08,17,15,30,18.50
2015,08,17,15,31,18.50
2015,08,17,15,32,18.50
2015,08,17,15,33,18.50
2015,08,17,15,34,18.50
2015,08,17,15,35,18.50
2015,08,17,15,36,18.50
2015,08,17,15,37,18.50
2015,08,17,15,38,18.50
2015,08,17,15,39,18.50
2015,08,17,15,40,18.50
2015,08,17,15,41,18.50
2015,08,17,15,42,18.50
2015,08,17,15,43,18.50
2015,08,17,15,44,18.50
2015,08,17,15,45,18.50
2015,08,17,15,46,18.70
2015,08,17,15,47,18.70
2015,08,17,15,48,18.70
2015,08,17,15,49,18.70
2015,08,17,15,50,18.70
2015,08,17,15,51,18.70
2015,08,17,15,52,18.70
2015,08,17,15,53,18.70
2015,08,17,15,54,18.70
2015,08,17,15,55,18.70
2015,08,17,15,56,18.70
2015,08,17,15,57,18.70
2015,08,17,15,58,18.70
2015,08,17,15,59,18.70
2015,08,17,16,00,18.70
2015,08,17,16,01,18.70
2015,08,17,16,02,18.70
2015,08,17,16,03,18.70
2015,08,17,16,04,18.70
2015,08,17,16,05,18.70
2015,08,17,16,06,18.70
2015,08,17,16,07,18.70
2015,08,17,16,08,18.70
2015,08,17,16,09,18.70
2015,08,17,16,10,18.70
2015,08,17,16,11,18.70
2015,08,17,16,12,18.70
2015,08,17,16,13,18.70
2015,08,17,16,14,18.70
2015,08,17,16,15,18.70
2015,08,17,16,16,19.10
2015,08,17,16,17,19.10
2015,08,17,16,18,19.10
2015,08,17,16,19,19.10
2015,08,17,16,20,19.10
2015,08,17,16,21,19.10
2015,08,17,16,22,19.10
2015,08,17,16,23,19.10
2015,08,17,16,24,19.10
2015,08,17,16,25,19.10
2015,08,17,16,26,19.10
2015,08,17,16,27,19.10
2015,08,17,16,28,19.10
2015,08,17,16,29,19.10
2015,08,17,16,30,19.10
2015,08,17,16,31,19.10
2015,08,17,16,32,19.10
2015,08,17,16,33,19.10
2015,08,17,16,34,19.10
2015,08,17,16,35,19.10
2015,08,17,16,36,19.10
2015,08,17,16,37,19.10
2015,08,17,16,38,19.10
2015,08,17,16,39,19.10
2015,08,17,16,40,19.10
2015,08,17,16,41,19.10
2015,08,17,16,42,19.10
2015,08,17,16,43,19.10
2015,08,17,16,44,19.10
2015,08,17,16,45,19.10
2015,08,17,16,46,19.90
2015,08,17,16,47,19.90
2015,08,17,16,48,19.90
2015,08,17,16,49,19.90
2015,08,17,16,50,19.90
2015,08,17,16,51,19.90
2015,08,17,16,52,19.90
2015,08,17,16,53,19.90
2015,08,17,16,54,19.90
2015,08,17,16,55,19.90
2015,08,17,16,56,19.90
2015,08,17,16,57,19.90
2015,08,17,16,58,19.90
2015,08,17,16,59,19.90
2015,08,17,17,00,19.90
2015,08,17,17,01,19.90
2015,08,17,17,02,19.90
2015,08,17,17,03,19.90
2015,08,17,17,04,19.90
2015,08,17,17,05,19.90
2015,08,17,17,06,19.90
2015,08,17,17,07,19.90
2015,08,17,17,08,19.90
2015,08,17,17,09,19.90
2015,08,17,17,10,19.90
2015,08,17,17,11,19.90
2015,08,17,17,12,19.90
2015,08,17,17,13,19.90
2015,08,17,17,14,19.90
2015,08,17,17,15,19.90
2015,08,17,17,16,19.10
2015,08,17,17,17,19.10
2015,08,17,17,18,19.10
2015,08,17,17,19,19.10
2015,08,17,17,20,19.10
2015,08,17,17,21,19.10
2015,08,17,17,22,19.10
2015,08,17,17,23,19.10
2015,08,17,17,24,19.10
2015,08,17,17,25,19.10
2015,08,17,17,26,19.10
2015,08,17,17,27,19.10
2015,08,17,17,28,19.10
2015,08,17,17,29,19.10
2015,08,17,17,30,19.10
2015,08,17,17,31,19.10
2015,08,17,17,32,19.10
2015,08,17,17,33,19.10
2015,08,17,17,34,19.10
2015,08,17,17,35,19.10
2015,08,17,17,36,19.10
2015,08,17,17,37,19.10
2015,08,17,17,38,19.10
2015,08,17,17,39,19.10
2015,08,17,17,40,19.10
2015,08,17,17,41,19.10
2015,08,17,17,42,19.10
2015,08,17,17,43,19.10
2015,08,17,17,44,19.10
2015,08,17,17,45,19.10
2015,08,17,17,46,15.30
2015,08,17,17,47,15.30
2015,08,17,17,48,15.30
2015,08,17,17,49,15.30
2015,08,17,17,50,15.30
2015,08,17,17,51,15.30
2015,08,17,17,52,15.30
2015,08,17,17,53,15.30
2015,08,17,17,54,15.30
2015,08,17,17,55,15.30
2015,08,17,17,56,15.30
2015,08,17,17,57,15.30
2015,08,17,17,58,15.30
2015,08,17,17,59,15.30
2015,08,17,18,00,15.30
2015,08,17,18,01,15.30
2015,08,17,18,02,15.30
2015,08,17,18,03,15.30
2015,08,17,18,04,15.30
2015,08,17,18,05,15.30
2015,08,17,18,06,15.30
2015,08,17,18,07,15.30
2015,08,17,18,08,15.30
2015,08,17,18,09,15.30
2015,08,17,18,10,15.30
2015,08,17,18,11,15.30
2015,08,17,18,12,15.30
2015,08,17,18,13,15.30
2015,08,17,18,14,15.30
2015,08,17,18,15,15.30
2015,08,17,18,16,13.90
2015,08,17,18,17,13.90
2015,08,17,18,18,13.90
2015,08,17,18,19,13.90
2015,08,17,18,20,13.90
2015,08,17,18,21,13.90
2015,08,17,18,22,13.90
2015,08,17,18,23,13.90
2015,08,17,18,24,13.90
2015,08,17,18,25,13.90
2015,08,17,18,26,13.90
2015,08,17,18,27,13.90
2015,08,17,18,28,13.90
2015,08,17,18,29,13.90
2015,08,17,18,30,13.90
2015,08,17,18,31,13.90
2015,08,17,18,32,13.90
2015,08,17,18,33,13.90
2015,08,17,18,34,13.90
2015,08,17,18,35,13.90
2015,08,17,18,36,13.90
2015,08,17,18,37,13.90
2015,08,17,18,38,13.90